User: anonymous   Login
Location: Eaton Estates
(41.3089°N, 82.0057°W)
Time: 11:33:06
(UTC+00:00)
Language:

AIST 2D - Orbit

View from above orbital plane
View from above orbital plane
View from above satellite
View from above satellite

Ground track
Ground track

The orbit data is extracted from the following two-line orbital elements,

1 41465U 16026B   23087.26561876  .00032550  00000-0  51148-3 0  9993
2 41465  97.0107 320.1745 0008105 161.5471 333.1986 15.53539026387388
Epoch (UTC): 28 March 2023 06:22:29
Eccentricity: 0.0008105
inclination: 97.0107°
perigee height: 401 km
apogee height: 412 km
right ascension of ascending node: 320.1745°
argument of perigee: 161.5471°
revolutions per day: 15.53539026
mean anomaly at epoch: 333.1986°
orbit number at epoch: 38738

The dashed part of the orbit path shows where the satellite is in the earth's shadow,  

DLR